Regional Weather Roundup
Issued by NWS

Home | Current Version | Previous Version | Text Only | Print | Product List | Glossary On
Versions: 1 2 3 4 5 6 7 8 9 10 11 12 13 14 15 16 17 18 19 20 21 22 23 24 25 26 27 28 29 30 31 32 33 34 35 36 37 38 39 40 41 42 43 44 45 46 47 48 49 50
000
ASUS43 KOAX 020710
RWRNE

WEATHER ROUNDUP FOR NEBRASKA
NATIONAL WEATHER SERVICE OMAHA NE
100 AM CST MON MAR 02 2015

NOTES: SATELLITE DATA IS BEING USED TO AUGMENT CLOUD COVER ABOVE
       12000 FEET.
       "FAIR" INDICATES FEW OR NO CLOUDS BELOW 12,000 FEET WITH NO
       SIGNIFICANT WEATHER AND/OR OBSTRUCTIONS TO VISIBILITY.

  * THESE STATIONS DO NOT REPORT WEATHER SUCH AS RAIN...SNOW OR FOG.

NEZ001>004-019>022-054>056-020800-
NEBRASKA PANHANDLE

CITY           SKY/WX    TMP DP  RH WIND       PRES   REMARKS
SCOTTSBLUFF    MOCLDY    26  16  65 SE7       30.22F WCI  18
ALLIANCE       MOCLDY    23  13  65 SE12      30.23F WCI  12
CHADRON        MOCLDY    23  12  62 SE8       30.24F WCI  14
KIMBALL        PTCLDY    22  18  83 S7        30.17F WCI  14
SIDNEY         PTCLDY    24  18  77 S8        30.24F WCI  15
$$

NEZ057>060-069>072-079>082-020800-
SOUTHWEST NEBRASKA

CITY           SKY/WX    TMP DP  RH WIND       PRES   REMARKS
NORTH PLATTE   PTCLDY    22  13  68 E7        30.36F WCI  13
IMPERIAL         N/A     25  16  68 SE5       30.31F WCI  19
LEXINGTON      PTCLDY    25  14  61 E7        30.40S WCI  18
MCCOOK         CLOUDY    32  16  51 S6        30.37S WCI  26
OGALLALA       PTCLDY    24  15  68 CALM      30.30F
$$

NEZ005>010-023>029-035>040-094-020800-
NORTH CENTRAL NEBRASKA

CITY           SKY/WX    TMP DP  RH WIND       PRES   REMARKS
VALENTINE      MOCLDY    16  10  77 CALM      30.35F
AINSWORTH      PTCLDY    16  10  78 S5        30.36F WCI   9
BROKEN BOW     PTCLDY    18  10  71 CALM      30.40R
O`NEILL        PTCLDY    19   9  64 CALM      30.42R
ORD            PTCLDY    15   7  70 CALM      30.42R
THEDFORD       CLEAR     15   8  75 CALM      30.35F
$$

NEZ041-046>049-061>064-073>077-083>087-020800-
SOUTH CENTRAL NEBRASKA

CITY           SKY/WX    TMP DP  RH WIND       PRES   REMARKS
GRAND ISLAND   MOCLDY    24  16  71 CALM      30.44S
AURORA         CLOUDY    25  13  59 E5        30.44S WCI  20
HASTINGS       CLOUDY    29  11  47 E7        30.43R WCI  22
HEBRON         CLOUDY    27  21  76 CALM      30.47R
HOLDREGE       MOCLDY    26  11  54 E7        30.41S WCI  18
KEARNEY *      MOCLDY    27  10  50 CALM      30.43R
YORK           CLOUDY    23  16  74 NE6       30.46R WCI  16
$$

NEZ011>018-030>034-042>045-020800-
NORTHEAST NEBRASKA

CITY           SKY/WX    TMP DP  RH WIND       PRES   REMARKS
NORFOLK        CLEAR     16  10  77 SE5       30.45R WCI   9
ALBION         FAIR      14   6  70 CALM      30.44S
BLAIR          PTCLDY    27  15  61 NE6       30.46S WCI  20
COLUMBUS *     MOCLDY    18   5  57 CALM      30.48R
FREMONT        MOCLDY    23  16  77 CALM      30.48S
TEKAMAH        CLEAR     18  12  77 NW5       30.49S WCI  11
WAYNE          PTCLDY     9   4  82 CALM      30.48R
$$

NEZ050>053-065>068-078-088>093-020800-
SOUTHEAST NEBRASKA

CITY           SKY/WX    TMP DP  RH WIND       PRES   REMARKS
LINCOLN        CLOUDY    24  16  71 CALM      30.50R
OMAHA EPPLEY   CLOUDY    22  17  81 CALM      30.49R
BEATRICE       CLOUDY    25  20  80 CALM      30.48R
FALLS CITY     PTCLDY    26  20  77 CALM      30.49R
NEBRASKA CITY  MOCLDY    28  13  54 CALM      30.48R
PLATTSMOUTH    CLOUDY    27  15  59 N5        30.48S WCI  22
$$

NEZ044-045-051>053-067-020800-
OMAHA AREA

CITY           SKY/WX    TMP DP  RH WIND       PRES   REMARKS
OMAHA EPPLEY   CLOUDY    22  17  81 CALM      30.49R
BLAIR          PTCLDY    27  15  61 NE6       30.46S WCI  20
FREMONT        MOCLDY    23  16  77 CALM      30.48S
MILLARD        MOCLDY    24  18  77 CALM      30.49S
OFFUTT AFB     MOCLDY    23  19  84 N5        30.48S WCI  16
PLATTSMOUTH    CLOUDY    27  15  59 N5        30.48S WCI  22
WAHOO          FAIR      22  14  71 N5        30.48S WCI  15
$$


USA.gov is the U.S. government's official web portal to all federal, state and local government web resources and services.